Temp
50 38 31 38 42 45 43 41 40 45 50 47 43 45 50 54 52 50 51 50 53 53 55 57 58 57 54 54 54 53 53 53 51 48 47 46 46 48 50 51 54 54 55 57
42 34 44 49 48 46 43 40 41 45 49 46 44 45 49 54 52 51 53 51 51 51 53 56 55 54 54 54 53 53 54 53 51 49 48 48 47 48 49 51 52 54 55 55
38 43 50 49 47 46 41 38 38 37 44 44 42 42 47 52 53 54 53 52 51 52 53 54 55 53 51 51 52 53 53 53 51 51 49 49 49 48 48 49 50 52 54 54
41 47 48 45 45 44 39 45 43 41 34 28 40 28 41 45 47 49 46 48 49 50 53 54 54 52 52 53 51 52 53 53 52 51 49 46 45 45 47 48 49 51 54 53
39 42 42 44 44 45 42 45 42 40 31 29 35 26 38 45 44 45 45 47 48 49 51 51 52 56 55 55 52 51 52 52 52 50 49 46 45 46 47 48 49 50 51 52
42 48 45 44 48 46 47 41 39 35 30 22 32 28 29 38 43 45 45 47 51 51 51 53 55 56 54 52 51 50 51 51 51 50 49 47 46 46 46 46 47 48 49 49
41 43 46 48 42 45 40 30 20 22 24 23 31 25 32 44 46 48 48 48 50 50 51 51 51 51 52 51 52 51 50 50 51 49 49 48 47 46 46 46 46 47 47 47
28 27 41 46 42 36 37 32 22 22 20 23 33 25 34 47 49 50 51 51 50 50 51 50 51 50 50 52 51 51 51 50 50 49 49 48 48 46 47 47 47 47 46 47
32 32 44 47 47 44 37 30 38 27 28 24 25 35 44 46 46 49 49 50 48 48 50 51 51 51 51 51 51 51 51 51 50 50 49 48 47 47 47 48 48 47 47 49
37 28 41 43 45 43 38 42 30 26 25 24 24 30 28 35 41 47 47 47 47 49 50 51 51 51 52 52 52 52 51 51 51 50 49 49 48 48 47 47 46 47 47 48
40 35 34 40 36 35 35 33 35 34 30 25 24 26 40 37 44 46 47 48 47 47 49 49 50 52 52 52 52 52 52 51 51 50 49 48 48 48 47 46 46 46 47 47
40 36 25 34 40 43 40 38 37 26 29 28 27 27 45 45 47 48 46 48 47 48 50 51 51 51 52 52 52 52 52 51 52 51 49 48 47 46 45 45 46 46 45 46
41 33 21 30 35 38 35 39 40 37 31 27 25 30 45 39 43 46 42 44 47 49 50 49 49 49 49 49 50 51 50 50 51 50 49 48 47 46 45 45 45 46 45 45
46 35 31 26 31 35 32 37 39 35 23 27 29 32 39 42 43 42 42 42 44 47 48 47 47 47 47 48 49 49 50 49 50 49 47 46 46 46 45 45 45 45 45 44
40 31 31 34 37 37 37 37 38 31 35 30 33 35 40 43 40 43 43 46 46 47 47 47 47 48 47 47 49 49 48 48 49 47 46 46 47 45 44 44 44 44 43 44
40 32 32 30 37 36 33 37 38 39 40 38 39 39 49 50 45 44 43 46 46 46 47 48 49 50 46 45 46 51 49 49 47 46 46 47 46 45 44 43 43 42 41 41
37 33 29 27 33 34 30 36 38 36 39 41 34 42 43 43 45 42 44 44 44 45 46 46 47 46 45 45 48 48 48 47 47 44 46 46 45 45 44 43 42 41 40 39
37 34 31 26 29 21 39 42 42 40 42 43 42 42 44 45 44 44 43 43 44 45 47 47 46 45 46 45 46 47 47 45 44 44 44 45 44 45 45 42 40 41 40 39
40 36 29 26 24 33 42 40 40 38 40 45 43 44 44 43 41 44 47 44 43 46 45 45 45 44 44 43 45 44 45 43 43 44 45 45 45 45 45 43 43 42 38 37
41 39 32 27 25 25 40 43 46 42 33 40 43 41 41 40 34 39 47 47 46 46 46 44 44 44 42 43 43 42 41 42 42 44 45 45 44 43 42 42 41 41 38 39
31 30 27 27 24 31 44 46 44 29 33 41 43 43 43 40 41 44 46 47 47 45 44 44 42 41 41 42 42 42 42 41 44 45 45 44 44 42 42 40 41 41 39 38
29 25 24 27 24 23 43 41 36 41 41 45 44 44 44 43 44 44 45 44 44 43 44 44 42 42 42 41 40 40 39 43 43 43 42 42 42 43 44 39 40 37 36 35
32 38 32 35 34 44 43 42 45 45 43 42 42 43 43 43 43 43 43 43 43 42 42 42 40 40 41 40 40 38 42 42 43 42 42 41 42 42 41 37 38 35 34 33
41 44 38 39 42 43 45 46 46 46 46 46 46 46 45 41 42 41 41 41 40 41 40 40 39 39 39 41 40 39 39 41 40 38 39 40 40 41 41 39 36 34 34 33
40 40 38 36 41 44 46 45 46 46 46 45 45 44 42 41 40 40 39 39 40 40 40 40 39 39 39 39 39 40 40 39 38 39 39 39 39 39 39 39 37 37 37 37
41 41 36 36 44 42 44 46 47 43 41 45 43 41 40 39 39 39 39 42 41 39 40 41 41 39 40 39 40 41 42 38 37 38 38 38 38 38 38 37 37 43 43 43
MSLP
1018.03 1019.01 1020.45 1020.38 1019.81 1019.72 1019.65 1019.25 1019.26 1018.90 1019.02 1019.05 1018.97 1018.21 1016.64 1015.67 1015.53 1015.63 1015.93 1016.07 1016.51 1016.99 1017.22 1017.32 1017.40 1017.65 1017.90 1018.05 1018.14 1018.21 1018.24 1018.23 1018.33 1018.39 1018.43 1018.34 1018.23 1017.78 1017.39 1017.12 1016.79 1016.44 1016.18 1015.90
1019.13 1020.31 1020.78 1020.36 1019.89 1020.03 1019.76 1019.61 1019.89 1019.91 1019.74 1020.27 1019.36 1017.99 1016.73 1015.69 1015.23 1015.15 1015.75 1016.41 1016.84 1017.23 1017.35 1017.37 1017.49 1017.69 1017.82 1017.93 1018.04 1018.07 1018.07 1018.14 1018.23 1018.31 1018.28 1018.22 1018.05 1017.60 1017.33 1016.97 1016.61 1016.29 1016.12 1015.87
1019.97 1021.02 1020.78 1020.41 1019.93 1020.35 1020.37 1020.63 1021.04 1021.39 1020.93 1020.67 1020.22 1018.59 1017.12 1016.35 1015.86 1015.72 1016.09 1016.50 1016.94 1017.17 1017.31 1017.37 1017.51 1017.67 1017.75 1017.92 1017.87 1017.87 1017.87 1017.93 1018.03 1018.07 1018.08 1018.04 1017.82 1017.54 1017.32 1016.99 1016.66 1016.32 1015.97 1015.79
1020.75 1020.97 1020.66 1020.57 1020.87 1021.02 1020.93 1021.38 1021.83 1022.06 1022.74 1022.33 1021.30 1020.23 1018.27 1017.14 1016.62 1016.42 1016.77 1016.94 1017.08 1017.13 1017.17 1017.27 1017.41 1017.62 1017.75 1017.67 1017.61 1017.64 1017.69 1017.72 1017.72 1017.74 1017.88 1018.02 1017.97 1017.84 1017.44 1017.01 1016.57 1016.27 1015.89 1015.74
1021.43 1021.30 1021.25 1021.30 1021.23 1021.04 1021.53 1022.06 1022.30 1023.00 1023.61 1023.62 1022.36 1021.92 1019.10 1017.80 1017.16 1017.16 1017.39 1017.46 1017.32 1017.23 1017.21 1017.26 1017.28 1017.34 1017.32 1017.26 1017.26 1017.25 1017.27 1017.24 1017.20 1017.26 1017.35 1017.59 1017.53 1017.45 1016.92 1016.69 1016.48 1016.16 1015.93 1015.72
1021.56 1021.53 1021.55 1021.35 1021.24 1021.47 1021.81 1022.34 1023.22 1024.02 1024.41 1024.41 1023.11 1022.58 1020.18 1018.57 1017.68 1017.72 1017.75 1017.57 1017.37 1017.38 1017.37 1017.25 1017.18 1017.07 1017.12 1016.92 1016.96 1017.02 1017.04 1016.84 1016.77 1016.77 1016.93 1017.08 1017.17 1016.98 1016.87 1016.65 1016.48 1016.14 1015.80 1015.75
1021.78 1021.77 1021.59 1021.43 1021.49 1021.68 1022.33 1023.60 1024.54 1025.24 1025.03 1024.95 1023.59 1023.15 1020.33 1018.48 1017.79 1017.70 1017.85 1017.70 1017.54 1017.51 1017.62 1017.68 1017.61 1017.42 1017.29 1017.10 1016.86 1016.78 1016.73 1016.59 1016.47 1016.51 1016.52 1016.55 1016.56 1016.62 1016.65 1016.47 1016.31 1016.07 1015.83 1015.55
1022.08 1022.10 1021.90 1021.72 1021.88 1022.31 1022.85 1023.80 1024.88 1025.71 1025.80 1025.06 1023.88 1022.15 1019.75 1018.38 1018.04 1017.77 1017.71 1017.73 1017.91 1017.89 1017.87 1017.91 1017.77 1017.47 1017.22 1016.95 1016.68 1016.62 1016.56 1016.43 1016.29 1016.21 1016.11 1016.02 1016.05 1016.07 1015.99 1015.91 1015.84 1015.78 1015.68 1015.49
1022.02 1022.20 1022.11 1022.04 1022.15 1022.60 1022.98 1023.65 1024.25 1025.22 1025.34 1024.98 1022.93 1021.10 1019.67 1018.71 1018.33 1018.04 1017.98 1017.91 1017.98 1017.95 1017.99 1018.02 1017.72 1017.47 1017.29 1016.98 1016.69 1016.48 1016.23 1015.97 1015.82 1015.70 1015.63 1015.63 1015.55 1015.55 1015.51 1015.34 1015.30 1015.26 1015.10 1014.99
1021.84 1022.27 1022.35 1022.47 1022.45 1022.76 1023.06 1023.67 1024.33 1024.97 1025.27 1024.76 1022.75 1021.24 1019.81 1019.42 1018.83 1018.31 1018.10 1018.12 1018.05 1018.06 1018.07 1017.98 1017.78 1017.53 1017.22 1016.84 1016.52 1016.20 1016.03 1015.83 1015.45 1015.18 1015.04 1014.89 1014.80 1014.76 1014.72 1014.69 1014.69 1014.68 1014.57 1014.53
1021.78 1022.43 1023.08 1022.96 1022.89 1022.79 1023.44 1023.50 1023.86 1024.38 1024.64 1024.56 1023.50 1021.54 1019.04 1018.97 1018.64 1018.35 1018.22 1018.23 1018.13 1018.16 1018.02 1017.96 1017.74 1017.44 1017.15 1016.83 1016.43 1016.16 1015.83 1015.52 1015.18 1014.86 1014.54 1014.43 1014.20 1014.09 1014.10 1014.10 1014.04 1014.05 1014.00 1013.97
1022.30 1022.92 1023.45 1023.21 1022.77 1022.56 1022.64 1022.87 1023.27 1024.29 1024.33 1024.09 1023.40 1020.59 1018.76 1018.65 1018.41 1018.31 1018.29 1018.26 1018.34 1018.22 1018.11 1017.98 1017.81 1017.72 1017.38 1017.03 1016.59 1016.27 1015.79 1015.45 1015.05 1014.49 1014.21 1013.99 1013.73 1013.64 1013.69 1013.65 1013.47 1013.42 1013.40 1013.37
1022.59 1023.34 1023.70 1023.51 1023.43 1022.95 1022.79 1022.70 1022.90 1023.53 1023.92 1023.76 1023.17 1020.27 1018.75 1018.65 1018.53 1018.32 1018.45 1018.59 1018.64 1018.44 1018.23 1018.13 1017.95 1017.95 1017.76 1017.36 1016.75 1016.30 1015.86 1015.37 1014.83 1014.22 1013.93 1013.69 1013.54 1013.41 1013.26 1013.08 1012.90 1012.86 1012.84 1012.76
1022.71 1023.46 1023.87 1023.77 1023.18 1022.88 1022.97 1022.55 1022.55 1023.11 1023.72 1022.90 1021.42 1019.89 1019.09 1018.73 1018.52 1018.47 1018.48 1018.63 1018.77 1018.71 1018.54 1018.54 1018.38 1018.14 1017.73 1017.31 1016.83 1016.33 1015.83 1015.30 1014.70 1014.28 1013.94 1013.65 1013.30 1012.97 1012.71 1012.45 1012.32 1012.19 1012.07 1012.10
1023.26 1023.83 1023.75 1023.43 1022.96 1022.67 1022.12 1021.75 1021.84 1022.13 1021.59 1021.70 1020.06 1019.37 1018.57 1018.26 1018.21 1018.25 1018.41 1018.55 1018.65 1018.64 1018.59 1018.54 1018.36 1018.03 1017.71 1017.33 1016.79 1016.36 1015.81 1015.18 1014.58 1014.19 1013.86 1013.48 1012.88 1012.49 1012.26 1012.01 1011.72 1011.57 1011.52 1011.39
1023.45 1023.88 1023.92 1023.40 1022.42 1022.10 1021.46 1020.43 1020.55 1020.61 1020.48 1020.11 1019.66 1018.06 1017.65 1017.50 1017.77 1018.16 1018.34 1018.50 1018.64 1018.74 1018.74 1018.53 1018.26 1017.92 1017.71 1017.45 1016.93 1016.23 1015.77 1015.25 1014.73 1014.23 1013.79 1013.27 1012.73 1012.26 1012.03 1011.67 1011.35 1011.16 1011.02 1011.01
1023.78 1024.26 1024.52 1023.78 1022.66 1021.80 1020.32 1018.51 1018.65 1018.81 1018.40 1018.37 1018.69 1016.82 1017.09 1017.48 1017.81 1018.06 1018.23 1018.50 1018.79 1018.93 1018.76 1018.51 1018.23 1017.89 1017.70 1017.41 1016.80 1016.16 1015.66 1015.15 1014.68 1014.23 1013.72 1013.25 1012.71 1012.20 1011.82 1011.41 1011.19 1010.92 1010.70 1010.52
1023.45 1024.13 1024.52 1024.10 1023.07 1021.35 1018.03 1017.29 1017.28 1017.50 1017.16 1017.10 1017.01 1017.04 1017.13 1017.42 1017.72 1017.92 1018.20 1018.54 1018.90 1018.86 1018.62 1018.46 1018.12 1017.82 1017.56 1017.19 1016.71 1016.15 1015.65 1015.06 1014.57 1014.06 1013.57 1013.10 1012.62 1012.08 1011.55 1011.14 1010.82 1010.44 1010.21 1010.04
1022.99 1023.73 1024.37 1024.16 1023.30 1020.79 1017.25 1016.91 1016.81 1016.84 1016.39 1016.01 1016.40 1016.84 1017.13 1017.30 1017.61 1017.94 1018.18 1018.44 1018.41 1018.41 1018.34 1018.15 1017.97 1017.75 1017.45 1017.16 1016.73 1016.28 1015.70 1015.19 1014.65 1014.11 1013.56 1013.03 1012.58 1012.03 1011.42 1010.89 1010.46 1009.95 1009.75 1009.55
1023.26 1023.35 1024.05 1024.11 1023.28 1020.90 1017.32 1016.69 1016.53 1016.67 1016.72 1016.39 1016.45 1016.96 1017.36 1017.85 1018.43 1018.23 1018.11 1018.23 1018.18 1018.14 1018.05 1017.99 1017.85 1017.67 1017.46 1016.95 1016.55 1016.20 1015.73 1015.20 1014.70 1014.12 1013.56 1012.96 1012.40 1011.91 1011.34 1010.73 1010.17 1009.63 1009.38 1009.06
1023.50 1023.95 1023.74 1023.53 1022.53 1019.92 1017.00 1016.71 1016.67 1017.22 1017.23 1016.68 1016.75 1017.00 1017.31 1017.78 1017.82 1017.93 1017.93 1017.85 1017.88 1017.89 1017.81 1017.73 1017.68 1017.72 1017.45 1016.95 1016.48 1016.07 1015.49 1014.95 1014.32 1013.76 1013.15 1012.58 1012.02 1011.60 1011.01 1010.49 1009.98 1009.52 1009.13 1008.82
1021.93 1022.58 1022.78 1022.75 1021.72 1019.24 1016.85 1017.04 1017.12 1016.91 1016.69 1016.64 1016.67 1016.81 1017.15 1017.54 1017.75 1017.81 1017.87 1017.88 1017.72 1017.63 1017.58 1017.64 1017.74 1017.44 1017.03 1016.82 1016.49 1016.08 1015.62 1014.84 1014.17 1013.57 1013.02 1012.49 1012.05 1011.55 1010.90 1010.49 1009.79 1009.33 1009.12 1008.90
1020.77 1020.02 1020.17 1019.96 1018.25 1016.93 1016.56 1016.26 1016.19 1016.36 1016.56 1016.51 1016.62 1016.92 1017.23 1017.62 1017.80 1017.81 1017.76 1017.66 1017.48 1017.48 1017.51 1017.45 1017.56 1017.25 1016.76 1016.51 1016.31 1015.95 1015.11 1014.52 1013.95 1013.45 1012.86 1012.25 1011.67 1011.23 1010.76 1010.35 1009.65 1009.07 1008.68 1008.57
1019.22 1018.84 1018.87 1018.32 1017.05 1016.81 1016.55 1016.23 1016.14 1016.27 1016.27 1016.38 1016.59 1016.88 1017.12 1017.39 1017.66 1017.67 1017.59 1017.51 1017.44 1017.32 1017.30 1017.23 1017.11 1016.79 1016.37 1015.94 1015.73 1015.56 1015.04 1014.34 1013.87 1013.27 1012.54 1011.92 1011.37 1010.74 1010.34 1009.99 1009.53 1008.96 1008.43 1008.00
1019.39 1018.84 1018.13 1017.66 1017.28 1016.71 1016.28 1016.28 1016.35 1016.22 1016.23 1016.40 1016.57 1016.72 1017.11 1017.40 1017.40 1017.39 1017.39 1017.36 1017.25 1017.07 1016.97 1016.88 1016.77 1016.47 1016.01 1015.55 1015.16 1014.83 1014.37 1014.07 1013.72 1013.14 1012.50 1011.89 1011.31 1010.75 1010.09 1009.61 1009.25 1008.58 1007.93 1007.57
1019.19 1018.00 1018.29 1017.23 1017.51 1017.40 1016.89 1016.70 1016.56 1016.53 1016.58 1016.61 1016.75 1017.02 1017.21 1017.29 1017.38 1017.32 1017.27 1017.03 1016.84 1016.57 1016.37 1016.30 1016.05 1015.80 1015.38 1015.06 1014.58 1014.20 1013.69 1013.49 1013.16 1012.59 1011.98 1011.49 1010.91 1010.33 1009.85 1009.25 1008.18 1007.88 1007.35 1006.68
Wind_Speed
4 10 2 2 2 0 1 0 3 1 2 7 4 14 18 14 8 8 7 3 7 8 5 6 5 5 4 3 4 4 3 3 1 1 2 1 2 3 3 3 5 5 5 7
8 4 1 3 1 0 1 3 4 5 2 4 6 18 7 6 4 4 7 7 8 6 4 5 5 5 5 5 6 6 5 3 1 1 2 2 2 3 3 3 4 5 5 6
7 3 2 1 5 4 2 1 1 3 8 4 7 7 2 4 5 8 7 6 5 8 7 5 6 7 6 7 8 7 6 5 3 3 1 2 3 2 3 3 3 3 5 5
5 2 3 2 2 1 1 2 2 4 6 3 3 5 5 0 1 2 5 5 5 5 4 3 5 4 6 7 6 6 5 5 4 3 2 3 2 3 2 3 3 4 5 5
4 3 2 4 2 1 2 0 1 1 2 4 3 5 8 2 1 3 5 5 5 3 2 1 2 4 5 4 5 6 6 6 5 5 5 4 5 3 3 3 5 4 3 5
3 1 1 1 1 1 1 4 3 3 3 4 4 6 7 2 1 3 1 4 5 3 3 4 4 5 6 6 6 6 7 7 6 6 7 7 7 6 4 4 4 4 2 2
2 1 1 1 2 3 7 6 5 7 5 5 1 4 10 4 3 6 5 4 4 3 5 6 7 8 7 8 7 6 7 8 7 7 7 7 8 7 7 6 4 5 3 2
4 7 1 0 2 2 2 6 7 4 1 6 2 6 6 2 5 5 3 6 6 5 5 6 7 7 7 7 7 6 7 8 7 7 8 7 7 5 5 5 4 4 3 4
2 3 1 3 3 3 1 1 3 3 3 4 4 5 5 3 3 6 6 6 4 3 4 6 7 7 7 7 8 6 7 7 7 7 6 7 7 7 6 7 5 4 5 4
1 2 1 0 3 2 1 0 2 3 1 4 6 4 6 2 4 3 4 4 1 4 6 6 6 7 7 6 6 7 6 8 8 8 7 7 7 7 7 6 7 6 6 5
2 4 4 3 4 7 1 2 2 2 5 4 3 8 5 9 7 5 4 5 3 3 4 5 6 6 7 7 7 8 8 8 8 7 7 7 7 7 7 6 6 7 6 6
0 3 3 6 1 1 3 3 5 5 3 2 4 10 3 8 8 3 5 4 5 4 5 6 6 7 8 8 8 8 8 7 7 7 7 8 7 7 7 7 8 7 7 7
1 1 4 7 5 3 2 4 4 3 3 5 5 8 1 2 4 6 3 5 5 6 8 7 8 8 8 8 8 8 8 8 8 7 7 7 7 7 8 8 8 7 7 7
3 1 6 7 5 3 4 5 6 6 3 4 8 4 3 4 3 1 1 3 5 6 7 6 7 7 7 8 8 9 10 8 9 8 7 7 8 8 7 7 7 7 8 8
4 3 3 6 8 6 9 11 10 11 11 9 4 7 6 7 4 4 1 4 6 7 6 7 8 8 7 8 10 8 8 8 9 8 7 8 9 7 7 7 8 8 7 8
1 3 3 6 7 6 7 12 13 15 15 16 14 25 13 13 5 2 3 4 6 7 7 9 10 11 7 8 9 11 9 9 8 8 9 9 9 8 7 8 8 7 7 7
5 2 3 6 6 8 9 8 11 6 6 13 14 12 3 4 4 1 5 5 5 6 7 8 9 8 7 7 10 12 10 8 9 7 8 9 8 9 7 8 7 8 8 7
5 4 3 5 5 2 6 2 3 8 7 10 4 4 6 5 3 3 2 1 5 7 8 10 8 7 8 6 9 10 8 8 8 8 8 7 8 11 10 7 8 9 6 8
3 5 2 2 2 9 8 2 4 5 5 6 7 5 5 2 2 3 4 3 3 7 7 7 6 6 7 8 9 9 10 7 7 8 10 11 9 11 11 10 10 9 5 6
1 3 4 2 4 6 3 2 3 2 7 2 5 3 1 3 2 4 3 4 6 6 6 6 7 6 6 8 7 7 8 8 9 10 11 10 9 9 11 11 10 6 5 8
3 1 8 5 4 10 8 5 2 2 4 1 3 4 5 5 6 4 6 6 4 5 6 5 6 6 7 8 7 9 9 10 10 10 10 11 11 11 10 9 8 8 7 5
9 8 6 5 5 11 4 4 4 5 2 5 5 5 4 2 4 5 6 7 7 6 5 5 6 8 8 7 6 8 8 11 10 10 9 9 9 8 8 8 9 7 6 6
3 8 7 12 8 2 6 2 4 4 5 4 3 3 1 3 5 6 6 7 6 5 4 4 5 8 7 6 5 8 11 10 11 10 10 9 10 9 8 7 9 7 5 5
4 4 5 1 5 5 3 4 3 2 5 4 4 4 3 4 6 7 7 6 3 3 4 4 7 8 11 7 6 7 8 10 9 10 11 10 10 12 10 6 5 5 6 5
5 4 3 6 6 8 5 2 6 4 5 5 5 3 2 4 6 6 5 4 4 4 4 5 6 7 9 8 8 8 7 6 8 9 9 9 7 9 10 8 7 7 6 7
6 15 9 12 11 11 14 8 9 4 2 4 3 3 3 3 5 4 5 4 4 6 5 8 9 8 10 9 11 10 10 6 7 11 9 9 9 9 9 9 11 12 15 18
Wind_Direction
26 69 98 158 54 172 180 6 296 287 17 357 225 274 292 290 247 249 233 150 110 112 145 134 131 137 162 217 253 252 244 279 345 332 343 345 302 308 311 319 324 340 336 338
29 87 233 298 320 282 356 10 325 287 34 345 317 294 294 350 358 180 149 130 123 126 144 164 179 200 217 237 244 252 253 239 252 209 250 245 276 276 280 290 324 327 337 330
118 169 227 299 39 23 53 136 29 242 331 253 310 315 360 3 31 58 65 116 135 169 189 209 216 221 234 244 245 247 244 235 244 251 301 319 302 311 320 320 310 314 329 340
79 309 2 354 137 260 179 45 25 358 35 270 53 279 318 282 107 111 83 69 108 121 150 176 212 237 237 253 254 245 239 249 239 240 240 250 243 279 261 276 280 298 333 343
235 168 201 225 162 40 145 347 57 76 8 37 318 73 269 225 327 66 115 116 120 111 86 339 301 274 273 264 242 235 241 244 236 233 224 239 263 253 258 287 304 309 348 0
135 221 101 187 151 130 320 52 38 48 75 27 247 114 291 277 227 131 73 97 94 67 15 338 308 280 269 275 265 252 247 253 246 237 235 238 254 270 284 283 294 288 301 336
57 128 166 61 30 9 64 51 347 0 9 215 256 43 238 282 63 141 152 110 62 29 7 333 322 314 303 292 283 272 255 262 252 245 242 240 246 258 262 267 266 281 284 267
120 330 192 158 74 170 50 130 146 224 236 265 202 241 259 226 125 134 138 71 54 27 3 349 330 327 325 323 313 289 276 275 267 255 252 245 246 242 246 252 257 261 255 267
143 281 31 44 33 87 20 77 145 113 310 40 237 268 315 57 79 70 78 70 45 18 352 340 336 340 321 325 316 299 290 277 271 257 253 252 246 246 249 254 251 250 252 240
194 43 179 126 51 358 153 291 73 358 155 278 291 269 226 196 141 136 94 100 32 6 350 342 347 338 339 338 323 325 292 273 275 267 248 244 239 238 241 244 247 245 250 244
55 103 300 73 196 179 112 264 222 147 153 183 301 273 217 181 191 134 135 131 93 14 343 322 322 332 336 325 331 322 316 301 291 276 263 254 249 241 240 240 240 240 249 244
316 144 225 240 127 92 190 219 161 123 240 227 153 274 232 170 199 99 149 104 36 4 334 327 337 331 336 331 331 318 320 325 299 287 271 258 257 249 246 246 243 236 240 241
97 323 6 337 351 344 223 233 204 112 76 224 143 264 153 109 40 332 137 50 3 356 344 345 359 349 329 316 315 322 321 310 307 309 298 285 272 262 253 248 245 239 238 239
68 215 180 196 209 160 233 227 213 151 143 211 224 250 189 136 165 132 48 0 356 341 340 348 343 317 310 312 318 320 317 312 309 313 308 297 281 267 261 256 248 239 231 233
122 232 237 256 253 225 230 232 215 201 204 190 220 222 232 219 249 203 134 354 353 337 354 335 327 325 316 321 323 321 309 304 306 307 310 300 295 277 272 268 257 251 244 238
164 271 334 285 267 251 261 242 229 234 237 248 257 272 266 278 166 130 342 354 337 337 331 326 322 320 316 311 305 319 315 314 320 318 312 307 305 295 280 276 270 262 253 240
158 171 40 266 329 325 291 244 207 196 208 216 222 244 236 156 160 128 332 355 331 322 303 306 306 304 307 312 317 320 320 309 316 309 312 312 312 309 297 286 281 267 257 242
154 157 158 270 345 294 245 202 204 216 234 217 203 175 165 162 175 244 347 124 304 285 313 312 301 305 313 305 311 309 313 309 307 308 305 308 309 310 309 299 281 276 250 243
165 141 230 231 241 293 289 215 184 181 286 200 198 157 153 125 60 311 149 214 298 309 289 280 294 298 311 312 307 307 315 310 316 319 324 324 319 311 311 305 302 289 260 251
88 109 161 154 204 244 265 156 115 75 280 77 101 110 10 72 296 247 291 273 271 280 284 296 307 312 310 300 304 311 310 317 319 322 317 316 314 309 308 307 305 286 247 255
131 173 219 234 260 278 261 163 94 134 256 204 140 213 224 203 208 225 301 314 287 282 309 324 320 307 302 309 321 326 321 321 316 315 316 319 320 318 311 308 309 302 292 274
172 161 196 177 219 263 145 76 185 210 204 225 234 238 238 229 275 286 283 267 287 296 316 330 325 318 311 307 318 313 309 306 304 302 301 301 302 302 304 298 303 295 289 289
239 197 190 194 217 215 208 150 219 185 227 254 195 132 133 274 265 277 266 276 261 280 311 306 294 297 299 295 296 303 309 311 308 309 305 303 305 303 296 298 307 307 293 277
276 217 240 183 244 196 193 260 255 291 224 181 165 192 201 224 261 267 274 276 290 314 307 286 308 310 304 307 296 257 284 300 304 307 310 308 310 315 314 300 284 292 296 286
232 349 270 271 301 313 329 337 311 283 177 167 169 167 278 289 287 284 293 297 285 292 287 269 277 280 283 295 293 296 291 290 305 310 311 311 305 306 307 301 294 292 271 254
224 259 267 273 291 286 288 303 316 290 199 176 178 267 285 271 273 275 286 272 282 290 292 309 308 301 297 298 298 302 301 297 313 318 319 317 316 314 308 306 306 294 284 285